Regional Weather Roundup
Issued by NWS Mobile, AL

Home | Current Version | Previous Version | Text Only | Print | Product List | Glossary On
Versions: 1 2 3 4 5 6 7 8 9 10 11 12 13 14 15 16 17 18 19 20 21 22 23 24 25 26 27 28 29 30 31 32 33 34 35 36 37 38 39 40 41 42 43 44 45 46 47 48 49 50
000
ASUS44 KMOB 210816
RWRMOB
REGIONAL WEATHER ROUNDUP
NATIONAL WEATHER SERVICE MOBILE AL
300 AM CDT TUE APR 21 2015

ALZ061>064-210900-
COASTAL ALABAMA


CITY           SKY/WX    TMP DP  RH WIND       PRES   REMARKS
MOBILE REG APT CLEAR     54  50  86 N3        29.97
BROOKLEY FIELD CLEAR     56  51  84 NW5       29.98R
GULF SHORES    MOSUNNY   59  52  78 N6        29.95S

$$

ALZ051>060-210900-
INTERIOR SOUTHWEST AND SOUTH CENTRAL ALABAMA


CITY           SKY/WX    TMP DP  RH WIND       PRES   REMARKS
ANDALUSIA/OPP  NOT AVBL
EVERGREEN      CLEAR     52  50  93 CALM      29.96S
FLORALA        SUNNY     56  52  86 CALM      29.96S
GREENVILLE     FAIR      55  48  77 CALM      29.94S

$$

FLZ001>006-210900-
WESTERN FLORIDA PANHANDLE


CITY           SKY/WX    TMP DP  RH WIND       PRES   REMARKS
CRESTVIEW      FAIR      59  51  75 N5        29.96R
DESTIN         CLEAR     64  52  64 N13       29.93S
DUKE FIELD     FAIR      59  51  75 N7        29.94R
MARY ESTHER    CLEAR     60  49  65 N10       29.93R
MILTON         SUNNY     59  50  72 N7        29.95S
PENSACOLA      CLEAR     61  51  70 N9        29.94S
NAS PENSACOLA  PTCLDY    60  51  72 N7        29.95R
VALPARAISO     CLEAR     60  51  71 N7        29.93R

$$

...MARINE OBSERVATIONS...

STATION/POSITION TIME  SKY/WX   TEMP    WIND        PRES    VSBY
                                AIR SEA DIR/SP/G
                 (UTC)          (F)     (DEG/KT/KT) (MB)    (MI)
PASCAGOULA       0700            62     350/  6/  9 1014.2S
PETIT BOIS ISL   0700            66      10/ 14/ 17 1014.6R
E DAUPHIN ISLAND 0800            66      10/ 17/ 18 1014.2R
MIDDLE BAY LIGHT 0700            65      10/ 17     1013.2
USCG MOBILE BAY  0700            61 72  350/  4/  5 1013.4F
STATE DOCKS      0700            62 70              1014.1F
MEAHER PARK      0800            60     360/  2     1014.9R
FORT MORGAN      0700            67      20/ 17/ 18 1013.6F
12 S ORANGE BCH  0750            67 74  360/ 17/ 21 1012.9S
WVE H/P(F/S)=  3/ 6

PENSACOLA BAY    0700            66 74  360/  5/  8 1014.1S
64 S DAUPHIN ISL 0750            71 74   10/ 16/ 17 1013.6F
WVE H/P(F/S)=  3/ 4

67 S FORT MORGAN 0730            71                 1013.2F
115 SE PENSACOLA 0750            74 75  330/ 12/ 14 1013.3R
WVE H/P(F/S)=  3/ 7

MID GULF/42001   0750            78 80   20/ 12/ 14 1012.4F
WVE H/P(F/S)=  3/ 6

EAST GULF/42003  0750            77 78  340/  4/  6 1013.1F
WVE H/P(F/S)=  3/ 6


$$

...NEARBY LOCATIONS

CITY           SKY/WX    TMP DP  RH WIND       PRES   REMARKS
GULFPORT       PTCLDY    57  51  80 N3        29.97R
BILOXI         PTCLDY    60  51  74 N2        29.97R
PASCAGOULA     CLEAR     55  53  93 CALM      29.97R
HATTIESBURG    CLEAR     52  50  93 CALM      29.99R
LAUREL         PTCLDY    50  46  87 CALM      29.99R
MERIDIAN       PTCLDY    49  47  93 SW3       29.97S
MERIDIAN NAS   PTCLDY    48  45  89 CALM      29.96F
MONTGOMERY     MOCLDY    55  47  74 NW5       29.95S
MAXWELL AFB    PTCLDY    55  47  75 NW3       29.94S
TROY           PTCLDY    55  49  80 NW5       29.95R
FORT RUCKER    CLEAR     55  50  83 N5        29.93S
DALEVILLE      CLEAR     56  49  76 NW5       29.93S
DOTHAN         CLEAR     57  53  86 NW6       29.96S

$$

...OTHER SURROUNDING LOCATIONS...

CITY           SKY/WX    TMP DP  RH WIND       PRES   REMARKS
BIRMINGHAM     CLEAR     51  45  79 NW3       29.96F
TUSCALOOSA     CLEAR     49  47  93 CALM      29.96F
COLUMBUS GA    PTCLDY    55  48  77 NW3       29.91S
PANAMA CITY    NOT AVBL
TALLAHASSEE    PTCLDY    66  64  93 NW6       29.91R
BATON ROUGE    CLEAR     56  54  93 CALM      29.98F
NEW ORLEANS    MOCLDY    65  48  54 N7        29.97S
SLIDELL        PTCLDY    57  55  93 CALM      29.97S
JACKSON        PTCLDY    51  48  89 CALM      29.98R
MCCOMB         MOCLDY    53  51  93 CALM      29.99S

$$

...SURROUNDING MARINE OBSERVATIONS...

STATION/POSITION TIME  SKY/WX   TEMP    WIND        PRES    VSBY
                                AIR SEA DIR/SP/G
                 (UTC)          (F)     (DEG/KT/KT) (MB)    (MI)
WAVELAND         0700            64 71  360/  9/ 12 1014.6R
PASCAGOULA RGN A 0700            61     360/  8/  9 1013.9S
PASCAGOULA PORT  0700               75                N/A
GRAND ISLE       0700            70 76   30/ 10/ 12 1014.0F
SOUTHWEST PASS   0800            69      10/ 15/ 17 1013.6F
PILOT STATION E  0700            68 64   10/ 11/ 12 1014.2F
SHELL BEACH      0700            69 75  360/ 13/ 15 1014.0S
PANAMA CITY      0700            67 74   10/ 13/ 16 1012.6R
APALACHICOLA     0700            69 71  300/  2/  5 1012.3F
TYNDALL TOWER C  0800            72     290/ 12/ 13 1012.7R
S APLCHCLA/42036 0750            75 76  310/ 10/ 12 1013.0F
WVE H/P(F/S)=  3/ 7


$$



USA.gov is the U.S. government's official web portal to all federal, state and local government web resources and services.